Regional Weather Roundup
Issued by NWS

Home | Current Version | Previous Version | Text Only | Print | Product List | Glossary On
Versions: 1 2 3 4 5 6 7 8 9 10 11 12 13 14 15 16 17 18 19 20 21 22 23 24 25 26 27 28 29 30 31 32 33 34 35 36 37 38 39 40 41 42 43 44 45 46 47 48 49 50
000
ASUS43 KMKX 232011
RWRWI

WISCONSIN REGIONAL WEATHER ROUNDUP
NATIONAL WEATHER SERVICE MILWAUKEE/SULLIVAN WI
200 PM CST SUN NOV 23 2014

NOTE: "FAIR" INDICATES FEW OR NO CLOUDS BELOW 12,000 FEET WITH NO
SIGNIFICANT WEATHER AND/OR OBSTRUCTIONS TO VISIBILITY.

WIZ001-002-006>008-014>016-023>028-232100-
NORTHWEST WISCONSIN

CITY           SKY/WX    TMP DP  RH WIND       PRES   REMARKS
SUPERIOR ARPT  DRIZZLE   41  40  96 SW3       29.40S
ASHLAND        CLOUDY    47  45  93 S8        29.40F
HAYWARD        FOG       45  44  97 CALM      29.39F VSB<1/4
SIREN          CLOUDY    42  41  98 CALM      29.40F FOG
CUMBERLAND     FOG       43  41  93 CALM      29.39F VSB<1/4
RICE LAKE      LGT RAIN  43  42  97 CALM      29.40F VSB<1/4
CHETEK         FOG       42  42 100 E6        29.39F VSB<1/4
LADYSMITH      FOG       45  44  98 SE3       29.42F VSB<1/4
EAU CLAIRE     CLOUDY    49  48  97 S7        29.39F FOG
MENOMONIE      CLOUDY    50  49  97 SE3       29.39F FOG
NEW RICHMOND   FOG       45  45 100 NW3       29.38F VSB<1/4
OSCEOLA        FOG       42  42 100 NW3       29.42S VSB<1/4
$$

WIZ003>005-009-010-017-018-232100-
NORTH CENTRAL WISCONSIN

CITY           SKY/WX    TMP DP  RH WIND       PRES   REMARKS
MANITOWISH WTR FOG       42  42 100 S7        29.41F VSB<1/4
ARBOR VITAE    FOG       44  43  96 S6        29.42F VSB<1/4
WOODRUFF       FOG       44  43  96 S6        29.42F VSB<1/4
RHINELANDER    FOG       44  44 100 S7        29.44F VSB 1/2
EAGLE RIVER    FOG       44  44 100 S3        29.43F VSB 1/4
LAND O LAKES   FOG       44  44 100 S7        29.44S VSB 1/4
PHILLIPS       FOG       42  42 100 S6        29.41F VSB<1/4
TOMAHAWK       FOG       43  42  97 CALM      29.44F VSB<1/4
MEDFORD        FOG       43  43 100 SE6       29.42F VSB<1/4
MERRILL        FOG       45  45 100 CALM      29.44F VSB<1/4
$$

WIZ029-030-035-036-043>047-232100-
CENTRAL WISCONSIN

CITY           SKY/WX    TMP DP  RH WIND       PRES   REMARKS
WAUSAU         FOG       46  46 100 S7        29.43F VSB 1/4
MOSINEE        FOG       46  46 100 S8        29.45F VSB 1/8
MARSHFIELD     FOG       48  47  96 S5        29.43F VSB 1/4
STEVENS POINT  RAIN      46  46 100 S3        29.44F
WAUPACA        LGT RAIN  50  49  95 SE8       29.47F
WAUTOMA        LGT RAIN  49  49 100 SE8       29.47F FOG
WISC RAPIDS    LGT RAIN  49  47  93 S3        29.45F FOG
CAMP DOUGLAS   DRIZZLE   50  50 100 SE7       29.43F FOG
$$

WIZ011>013-019>022-031-037>040-048>050-232100-
NORTHEAST WISCONSIN

CITY           SKY/WX    TMP DP  RH WIND       PRES   REMARKS
ANTIGO         FOG       41  41 100 CALM      29.45F VSB<1/4
SHAWANO        CLOUDY    50  48  95 CALM      29.47F FOG
OCONTO         CLOUDY    46  46 100 S5        29.48F
STURGEON BAY   CLOUDY    45  43  93 S9        29.51F
GREEN BAY      CLOUDY    48  46  93 S5        29.50F FOG
MANITOWOC      LGT RAIN  45  44  97 S13       29.52F FOG
APPLETON       LGT RAIN  46  46 100 S8        29.50F FOG
CLINTONVILLE   CLOUDY    46  46 100 S5        29.46F FOG
OSHKOSH        LGT RAIN  48  46  93 VRB6      29.50F FOG
$$

WIZ032>034-041-042-053>061-232100-
SOUTHWEST WISCONSIN

CITY           SKY/WX    TMP DP  RH WIND       PRES   REMARKS
LA CROSSE      LGT RAIN  50  48  93 S5        29.40F FOG
SPARTA         DRIZZLE   50  49  95 CALM      29.43F
VIROQUA        CLOUDY    49  49 100 SE7       29.41F
BOSCOBEL       LGT RAIN  51  48  89 VRB6      29.43F FOG
PRAIRIE DU CHI LGT RAIN  50  48  95 E5        29.40F
PLATTEVILLE    CLOUDY    48  47  97 E7        29.42F
$$

WIZ056-057-062-063-064-067-068-232100-
SOUTH CENTRAL WISCONSIN

CITY           SKY/WX    TMP DP  RH WIND       PRES   REMARKS
REEDSBURG      LGT RAIN  49  48  97 SE3       29.43F
BARABOO/DELLS  LGT RAIN  48  46  93 CALM      29.44F
LONE ROCK      LGT RAIN  52  47  83 SE6       29.45F
MINERAL POINT  RAIN      48  46  93 SE9       29.43F
MADISON        LGT RAIN  48  46  93 S8        29.47F FOG
MIDDLETON      CLOUDY    49  48  97 S3        29.47F
WATERTOWN      LGT RAIN  47  47 100 SE3       29.48F
MONROE         RAIN      46  46 100 SE9       29.45F
JANESVILLE     LGT RAIN  50  48  93 SE9       29.48F FOG
$$

WIZ051-052-058>065-066-070>072-232100-
SOUTHEAST WISCONSIN

CITY           SKY/WX    TMP DP  RH WIND       PRES   REMARKS
MILWAUKEE      LGT RAIN  47  44  90 SE10      29.52F FOG
WAUKESHA       RAIN      46  46 100 SE5       29.52F FOG
MILWAUKEE/TIMM DRIZZLE   48  46  93 S7        29.53F
RACINE         LGT RAIN  46  44  93 S13       29.55F FOG
BURLINGTON     RAIN      48  47  98 S6        29.51F
KENOSHA        LGT RAIN  51  48  89 SE8       29.52F FOG
FOND DU LAC    LGT RAIN  49  46  90 S13       29.48F
SHEBOYGAN      LGT RAIN  47  45  93 S12       29.50F FOG
WEST BEND      DRIZZLE   46  45  93 SE5       29.50F
JUNEAU         RAIN      47  46  97 SE8       29.50F
$$

LSZ147-162-232100-
LAKE SUPERIOR

STATION/POSITION TIME  TEMP    WIND        PRES    WAVE
                       AIR SEA DIR/SP/G            HT/PER
                 (UTC) (F)     (DEG/KT/KT) (MB)    (FT/S)
DEVILS ISLAND    2000   42     220/  3/  4  995.9F
PORT WING        1900   41     160/  2/  3  996.3F
SAXON HARBOR     1900   50     190/  2/  8  995.9F
$$

LMZ867-665-643>646-232100-
LAKE MICHIGAN

STATION/POSITION TIME  TEMP    WIND        PRES    WAVE
                       AIR SEA DIR/SP/G            HT/PER
                 (UTC) (F)     (DEG/KT/KT) (MB)    (FT/S)
CHAMBERS ISLAND  1900   46     150/  6/ 11 1000.7F
N MID LAKE BUOY  1950   45 42  200/ 19/ 23 1000.6F   6/ 6
NORTHPORT PIER   1900   44     160/  9/ 15 1001.0F
SISTER BAY       1943          150/ 14/ 17   N/A
ALGOMA LAKESHORE 1928          210/  8/  9   N/A
KEWAUNEE LAKESHO 1900   40     180/  9/ 10  999.9F
SHEBOYGAN LAKESH 2000   43 40  180/ 14/ 15  999.9F
PORT WASHINGTON  1900   43     210/  5/ 10 1001.7F
ATWATER BUOY     1900   49      CALM  /  2 1003.7F
MILWAUKEE LAKESH 1900   42     140/  9/ 10   N/A
S MID LAKE BUOY  1950   46 43  150/ 14/ 16 1001.4F   2/ 4
KENOSHA   LAKESH 2000   43     170/ 11/ 12 1000.3F
$$

TC  - TEMPERATURE IN CELSIUS
VSB - VISIBILITY IN STATUTE MILES
WCI - WIND CHILL INDEX
HX  - HEAT INDEX




USA.gov is the U.S. government's official web portal to all federal, state and local government web resources and services.